SCP
0 -0 0 0 0 -0 0 0 0 0 0 -0 0 -0 0 -0 0 0 0 -0 -0 0 0 0 0 0 1 1 1 0 0 0
-0 0 0 0 -0 0 0 0 0 0 0 0 0 0 0 -0 -0 0 -0 0 0 0 0 0 0 0 0 1 1 0 -0 -0
0 0 0 0 0 0 -0 -0 0 -0 0 0 0 -0 0 0 0 0 0 0 0 0 0 1 1 1 1 1 1 0 0 0
0 -0 -0 -0 -0 -0 0 0 -0 0 0 -0 0 0 0 1 1 1 1 1 1 1 1 1 2 1 1 1 1 1 1 0
0 0 0 0 0 0 0 -0 -0 -0 0 0 0 0 1 1 2 2 2 2 3 2 2 2 1 1 1 0 0 1 1 1
0 0 -0 0 0 0 -0 0 0 0 -0 0 0 0 1 1 2 1 2 3 1 1 1 1 1 1 0 0 0 0 0 0
0 0 0 0 -0 0 0 -0 0 -0 0 1 1 1 1 1 1 1 1 1 1 1 1 0 0 0 0 0 0 0 0 0
0 0 -0 -0 0 0 0 0 0 0 0 1 1 1 1 1 1 1 1 0 0 0 0 0 0 0 0 0 0 0 0 0
0 0 0 0 0 0 0 0 0 0 1 1 1 1 0 0 0 0 0 0 0 0 0 0 0 0 0 0 0 0 0 0
0 0 0 0 0 0 0 0 0 0 0 0 1 0 0 0 0 0 0 0 0 0 0 0 0 0 0 0 0 0 0 0
0 -0 0 0 0 0 0 0 0 0 0 0 0 0 0 0 0 0 0 0 0 0 0 0 0 0 0 0 0 0 0 0
0 0 0 0 0 0 0 -0 0 0 0 0 0 0 1 0 0 0 0 0 0 0 0 0 0 0 0 0 0 0 0 0
0 0 0 0 0 0 -0 0 0 0 0 0 0 1 1 0 0 0 0 0 0 0 0 0 0 0 0 0 0 0 0 0
0 0 0 0 0 0 0 0 0 0 0 0 1 0 0 0 0 0 0 0 0 0 0 0 0 0 0 0 0 0 0 0
1 0 0 0 0 0 0 0 0 0 0 0 0 0 0 0 0 0 0 0 0 0 0 0 0 0 0 0 0 0 0 0
0 0 0 0 0 0 0 0 0 0 0 0 0 0 0 0 0 0 0 0 0 0 0 0 0 0 0 0 0 0 0 0
1 1 0 0 0 0 0 0 0 0 0 0 0 0 0 0 0 0 0 0 0 0 0 0 0 0 0 0 0 0 0 0
0 0 0 0 0 0 0 0 0 0 0 0 0 0 0 0 0 0 0 0 0 0 0 0 0 0 0 0 0 0 0 0
0 0 0 0 0 0 0 0 0 0 0 0 0 0 0 0 0 0 0 0 0 0 0 0 0 0 0 0 0 0 0 0
Wind_Speed_500mb
40 40 30 16 29 28 24 17 12 17 16 44 30 25 27 29 30 29 30 29 25 18 19 24 26 18 14 12 9 5 2 2
44 14 26 26 29 18 19 25 13 8 15 19 28 30 26 29 31 28 29 22 21 23 27 27 24 19 15 10 7 3 2 6
32 29 38 28 25 23 21 21 5 22 12 21 12 31 26 27 31 29 25 27 27 27 25 23 19 14 10 7 5 4 5 5
33 47 50 36 32 39 16 9 21 19 7 5 9 4 28 33 29 24 24 29 25 23 20 18 15 13 8 5 3 7 9 13
23 21 20 27 15 20 19 22 29 31 15 17 15 21 15 29 30 19 17 23 28 23 18 16 15 14 10 8 10 14 14 15
12 23 37 41 18 16 27 6 8 21 21 22 20 19 17 22 23 22 17 32 22 16 14 13 13 15 10 12 17 19 21 21
22 20 35 22 35 4 15 25 21 27 19 21 19 18 18 21 23 18 19 17 17 16 14 11 16 16 16 18 23 25 26 25
16 24 26 39 4 2 4 12 12 19 14 21 25 22 19 21 22 19 19 14 13 11 7 5 12 17 19 22 24 24 25 25
22 19 13 18 20 9 12 4 12 14 21 20 20 23 22 20 19 19 15 10 7 5 8 11 16 19 22 23 24 24 23 23
10 12 22 21 15 14 3 9 4 3 13 15 23 23 23 20 18 15 10 5 6 10 14 16 19 21 23 23 24 24 26 27
10 28 18 23 21 14 4 9 7 13 17 22 27 28 20 16 14 9 6 7 10 14 16 15 18 21 21 22 24 25 30 33
21 25 11 22 26 17 9 10 18 18 21 25 27 19 22 18 10 6 6 10 14 16 14 18 20 23 22 24 27 31 36 39
9 25 21 19 26 22 6 13 12 11 20 22 13 21 29 17 8 5 8 11 14 14 16 18 21 24 25 28 32 39 44 40
10 16 19 23 21 1 15 15 14 13 18 20 23 21 17 10 5 7 9 11 13 13 15 18 23 26 29 31 41 46 38 36
13 14 25 22 23 19 16 18 16 21 19 22 23 16 10 6 5 7 9 11 12 14 16 19 23 25 28 31 42 44 42 44
19 14 15 20 21 18 19 20 22 23 24 22 18 13 8 4 3 5 9 11 13 16 18 21 23 23 24 31 38 42 45 45
15 14 16 16 16 22 23 26 28 25 21 18 15 9 8 8 9 10 10 11 14 16 18 21 23 23 25 31 36 39 37 39
8 33 10 32 25 27 31 31 29 28 23 16 13 13 16 17 14 11 9 11 13 16 19 22 23 24 26 29 35 35 36 36
26 25 25 33 33 32 32 30 27 23 20 20 19 21 21 18 13 13 9 12 14 15 18 21 23 24 27 29 28 32 33 34
Wind_Direction_500mb
208 204 242 219 241 287 310 222 248 183 344 156 147 125 134 136 137 141 132 138 131 138 147 141 123 123 121 114 126 142 221 303
211 210 251 265 293 210 222 253 242 101 333 152 173 152 137 143 144 139 127 129 129 123 124 124 122 117 110 106 100 93 303 309
196 197 223 204 244 259 273 269 209 226 93 51 11 143 140 140 144 148 143 132 127 120 119 118 116 111 101 81 48 9 4 337
198 205 221 251 209 231 219 134 355 306 137 210 342 68 141 138 147 144 145 145 137 125 118 113 104 86 67 62 11 355 330 328
169 176 210 248 250 272 90 234 180 210 159 125 119 99 119 130 138 139 142 122 103 106 104 88 94 90 50 2 354 347 346 317
119 320 185 218 158 254 299 297 216 82 194 115 102 108 117 131 138 155 159 88 101 103 90 74 60 61 44 345 346 337 330 327
167 236 83 351 259 167 293 333 332 352 53 85 67 99 127 143 131 136 126 106 107 92 70 34 23 358 3 341 332 327 322 322
154 198 181 200 123 317 339 320 297 313 60 83 101 113 133 132 135 136 127 117 108 110 85 6 346 338 336 331 325 325 330 331
215 208 223 237 187 175 21 302 352 326 82 118 123 122 134 141 143 134 130 118 86 39 1 343 338 335 328 329 327 328 328 327
232 186 220 81 78 73 360 22 328 97 128 139 135 133 141 147 141 132 119 86 24 354 344 337 332 330 330 331 331 338 346 342
146 201 137 149 145 152 188 134 149 127 141 135 144 136 133 129 128 116 71 25 359 343 337 337 340 341 346 348 350 345 340 338
224 262 299 103 115 106 86 270 125 134 157 160 166 216 131 147 131 96 30 359 348 344 344 345 350 351 354 350 348 344 339 333
164 246 117 121 134 128 235 96 135 147 162 169 187 63 126 137 117 63 19 359 3 355 355 354 352 354 356 352 346 340 337 345
177 46 255 144 146 97 104 139 134 146 154 149 122 130 130 124 86 31 12 6 5 0 1 358 354 357 356 352 341 341 339 339
44 18 121 118 88 117 128 135 148 147 148 148 151 145 140 110 55 25 26 30 17 14 5 359 354 358 355 340 348 351 350 346
150 178 131 100 113 118 135 140 139 146 147 154 147 150 144 115 71 57 54 39 21 14 3 357 353 353 350 343 355 355 359 358
97 117 119 130 131 137 135 138 138 140 142 140 143 141 153 135 118 95 65 34 22 15 6 360 355 354 348 339 340 346 353 350
325 148 188 157 155 151 146 144 143 138 130 124 137 140 136 129 116 96 63 36 23 14 5 360 358 355 346 343 345 350 350 346
122 136 128 149 154 155 152 149 147 139 132 127 128 132 130 125 117 96 61 34 18 9 1 360 358 354 351 351 346 349 343 342
Wind_Speed_850mb
40 40 30 16 29 28 24 17 12 17 16 44 30 25 27 29 30 29 30 29 25 18 19 24 26 18 14 12 9 5 2 2
44 14 26 26 29 18 19 25 13 8 15 19 28 30 26 29 31 28 29 22 21 23 27 27 24 19 15 10 7 3 2 6
32 29 38 28 25 23 21 21 5 22 12 21 12 31 26 27 31 29 25 27 27 27 25 23 19 14 10 7 5 4 5 5
33 47 50 36 32 39 16 9 21 19 7 5 9 4 28 33 29 24 24 29 25 23 20 18 15 13 8 5 3 7 9 13
23 21 20 27 15 20 19 22 29 31 15 17 15 21 15 29 30 19 17 23 28 23 18 16 15 14 10 8 10 14 14 15
12 23 37 41 18 16 27 6 8 21 21 22 20 19 17 22 23 22 17 32 22 16 14 13 13 15 10 12 17 19 21 21
22 20 35 22 35 4 15 25 21 27 19 21 19 18 18 21 23 18 19 17 17 16 14 11 16 16 16 18 23 25 26 25
16 24 26 39 4 2 4 12 12 19 14 21 25 22 19 21 22 19 19 14 13 11 7 5 12 17 19 22 24 24 25 25
22 19 13 18 20 9 12 4 12 14 21 20 20 23 22 20 19 19 15 10 7 5 8 11 16 19 22 23 24 24 23 23
10 12 22 21 15 14 3 9 4 3 13 15 23 23 23 20 18 15 10 5 6 10 14 16 19 21 23 23 24 24 26 27
10 28 18 23 21 14 4 9 7 13 17 22 27 28 20 16 14 9 6 7 10 14 16 15 18 21 21 22 24 25 30 33
21 25 11 22 26 17 9 10 18 18 21 25 27 19 22 18 10 6 6 10 14 16 14 18 20 23 22 24 27 31 36 39
9 25 21 19 26 22 6 13 12 11 20 22 13 21 29 17 8 5 8 11 14 14 16 18 21 24 25 28 32 39 44 40
10 16 19 23 21 1 15 15 14 13 18 20 23 21 17 10 5 7 9 11 13 13 15 18 23 26 29 31 41 46 38 36
13 14 25 22 23 19 16 18 16 21 19 22 23 16 10 6 5 7 9 11 12 14 16 19 23 25 28 31 42 44 42 44
19 14 15 20 21 18 19 20 22 23 24 22 18 13 8 4 3 5 9 11 13 16 18 21 23 23 24 31 38 42 45 45
15 14 16 16 16 22 23 26 28 25 21 18 15 9 8 8 9 10 10 11 14 16 18 21 23 23 25 31 36 39 37 39
8 33 10 32 25 27 31 31 29 28 23 16 13 13 16 17 14 11 9 11 13 16 19 22 23 24 26 29 35 35 36 36
26 25 25 33 33 32 32 30 27 23 20 20 19 21 21 18 13 13 9 12 14 15 18 21 23 24 27 29 28 32 33 34
Wind_Direction_850mb
208 204 242 219 241 287 310 222 248 183 344 156 147 125 134 136 137 141 132 138 131 138 147 141 123 123 121 114 126 142 221 303
211 210 251 265 293 210 222 253 242 101 333 152 173 152 137 143 144 139 127 129 129 123 124 124 122 117 110 106 100 93 303 309
196 197 223 204 244 259 273 269 209 226 93 51 11 143 140 140 144 148 143 132 127 120 119 118 116 111 101 81 48 9 4 337
198 205 221 251 209 231 219 134 355 306 137 210 342 68 141 138 147 144 145 145 137 125 118 113 104 86 67 62 11 355 330 328
169 176 210 248 250 272 90 234 180 210 159 125 119 99 119 130 138 139 142 122 103 106 104 88 94 90 50 2 354 347 346 317
119 320 185 218 158 254 299 297 216 82 194 115 102 108 117 131 138 155 159 88 101 103 90 74 60 61 44 345 346 337 330 327
167 236 83 351 259 167 293 333 332 352 53 85 67 99 127 143 131 136 126 106 107 92 70 34 23 358 3 341 332 327 322 322
154 198 181 200 123 317 339 320 297 313 60 83 101 113 133 132 135 136 127 117 108 110 85 6 346 338 336 331 325 325 330 331
215 208 223 237 187 175 21 302 352 326 82 118 123 122 134 141 143 134 130 118 86 39 1 343 338 335 328 329 327 328 328 327
232 186 220 81 78 73 360 22 328 97 128 139 135 133 141 147 141 132 119 86 24 354 344 337 332 330 330 331 331 338 346 342
146 201 137 149 145 152 188 134 149 127 141 135 144 136 133 129 128 116 71 25 359 343 337 337 340 341 346 348 350 345 340 338
224 262 299 103 115 106 86 270 125 134 157 160 166 216 131 147 131 96 30 359 348 344 344 345 350 351 354 350 348 344 339 333
164 246 117 121 134 128 235 96 135 147 162 169 187 63 126 137 117 63 19 359 3 355 355 354 352 354 356 352 346 340 337 345
177 46 255 144 146 97 104 139 134 146 154 149 122 130 130 124 86 31 12 6 5 0 1 358 354 357 356 352 341 341 339 339
44 18 121 118 88 117 128 135 148 147 148 148 151 145 140 110 55 25 26 30 17 14 5 359 354 358 355 340 348 351 350 346
150 178 131 100 113 118 135 140 139 146 147 154 147 150 144 115 71 57 54 39 21 14 3 357 353 353 350 343 355 355 359 358
97 117 119 130 131 137 135 138 138 140 142 140 143 141 153 135 118 95 65 34 22 15 6 360 355 354 348 339 340 346 353 350
325 148 188 157 155 151 146 144 143 138 130 124 137 140 136 129 116 96 63 36 23 14 5 360 358 355 346 343 345 350 350 346
122 136 128 149 154 155 152 149 147 139 132 127 128 132 130 125 117 96 61 34 18 9 1 360 358 354 351 351 346 349 343 342